Preview of NWS' New Version of Forecast
This preview is not operational and should not be used for support decisions.
Latest weather observations around

Alabaster, Shelby County Airport (KEET)

Using International System of Units (Switch to English Units)
Date/ Time (CST) Wind (kph) Vis. (km) Weather Sky Cond. Temp (°C) Rel. Humidity Wind Chill (°C) Heat Index (°C) Pressure Precip. (cm)
Air Dwpt 6 hour Altimeter (hPa) Sea level (hPa) 1 hr 3 hr 6 hr
Max Min
Feb 22 07:53 5 12.87 Cloudy OVC007 20 19     96%     1029.1 1028.4      
Feb 22 07:08 SSW 5 11.27 Cloudy OVC008 19 19     100%     1028.8        
Feb 22 06:53 Calm 9.66 Fog/Mist OVC006 19 19     100%     1028.5 1028      
Feb 22 05:53 5 11.27 Cloudy OVC006 19 19     97%     1028.1 1027.6      
Feb 22 05:46 Calm 12.87 Cloudy OVC006 19 19     97%     1028.1        
Feb 22 04:53 Calm 11.27 Cloudy OVC009 18 18     100%     1027.8 1027.1      
Feb 22 03:53 9 14.48 Cloudy OVC009 19 19     97%     1027.1 1026.5      
Feb 22 02:53 5 16.09 Mostly Cloudy BKN009 19 19     97%     1027.1 1026.3      
Feb 22 02:38 S 11 16.09 Mostly Cloudy BKN009 20 19     93%     1026.8        
Feb 22 02:30 S 8 16.09 Partly Cloudy SCT009 20 19     93%     1026.8        
Feb 22 01:53 S 15 16.09 Mostly Cloudy BKN009 20 19     93%     1026.8 1026.1      
Feb 22 01:49 S 18 16.09 Mostly Cloudy BKN009 20 19     94%     1026.8        
Feb 22 00:53 S 17 16.09 Clear CLR 20 19     93%     1027.1 1026.2      
Feb 21 23:53 S 11 16.09 Clear CLR 21 18     87%     1027.1 1026.4      
Feb 21 22:53 S 11 16.09 Clear CLR 21 18     81%     1026.8 1026.1      
Feb 21 21:53 S 9 16.09 Clear CLR 21 17     78%     1026.8 1026.1      
Feb 21 20:53 Calm 16.09 Clear CLR 22 17     76%   22 1026.1 1025.5      
Feb 21 19:53 SSE 9 16.09 Clear CLR 23 17     71%   23 1025.4 1024.9      
Feb 21 18:53 SE 8 16.09 Clear CLR 23 18     74%   24 1025.1 1024.3      
Feb 21 17:53 SE 8 16.09 Mostly Clear FEW050 24 18     71%   24 1024.7 1024.2      
Feb 21 16:53 SSE 21 16.09 Mostly Cloudy SCT046 BKN090 26 18     60%   26 1024.4 1023.7      
Feb 21 15:53 S 15 16.09 Mostly Clear FEW043 FEW090 27 18     58%   28 1024.4 1023.6      
Feb 21 14:53 S 22 16.09 Mostly Cloudy FEW040 SCT055 BKN070 26 18     62%   26 1024.7 1023.9      
Feb 21 13:53 S 17 16.09 Cloudy SCT040 SCT060 OVC085 26 18     60%   26 1025.1 1024.4      
Feb 21 12:53 S 17 16.09 Mostly Cloudy SCT036 BKN049 BKN055 26 19     67%   27 1025.7 1025.1      
Feb 21 11:53 S 15 16.09 Partly Cloudy FEW028 SCT048 25 19     69%   25 1026.8 1026.1      
Feb 21 11:30 S 17 16.09 Cloudy SCT026 BKN035 OVC048 25 19     71%   25 1027.1        
Feb 21 10:53 S 18 16.09 Cloudy SCT024 BKN029 OVC036 25 19     71%   25 1027.8 1027.1      
Feb 21 09:53 S 17 16.09 Cloudy SCT022 BKN027 OVC047 23 19     79%   23 1028.1 1027.6      
Feb 21 09:51 S 21 16.09 Cloudy SCT022 BKN029 OVC047 23 19     78%   23 1028.1        
Feb 21 09:02 S 15 16.09 Mostly Cloudy SCT016 BKN046 22 19     84%   23 1028.1        
Feb 21 08:53 S 11 16.09 Cloudy BKN014 BKN033 OVC043 23 19     81%   23 1028.1 1027.6      
Feb 21 07:53 SSE 11 16.09 Cloudy BKN010 OVC042 21 19     90%     1027.8 1027.1      
Feb 21 06:53 SSE 5 16.09 Cloudy BKN012 OVC017 20 19     96%     1027.1 1026.5      
Feb 21 06:42 SSE 8 14.48 Cloudy BKN010 OVC014 20 19     96%     1027.1        
Feb 21 06:15 S 13 16.09 Cloudy BKN008 OVC060 20 19     96%     1026.8        
Feb 21 06:08 SSE 11 16.09 Cloudy BKN010 OVC060 20 19     96%     1026.8        
Feb 21 05:53 SE 9 16.09 Cloudy FEW010 OVC060 20 19     96%     1026.8 1026      
Feb 21 04:53 SSE 11 16.09 Partly Cloudy SCT070 20 19     93%     1026.1 1025.6      
Feb 21 03:53 SSE 8 16.09 Mostly Clear FEW090 20 19     96%     1026.1 1025.3      
Feb 21 03:35 SSE 11 16.09 Mostly Cloudy SCT013 SCT024 BKN095 21 19     93%     1025.7        
Feb 21 03:24 SSE 17 16.09 Cloudy BKN014 BKN024 OVC045 21 19     93%     1026.1        
Feb 21 02:53 SSE 11 16.09 Cloudy SCT013 OVC021 21 19     93%     1026.1 1025.4      
Feb 21 02:21 SSE 13 16.09 Cloudy BKN012 OVC049 21 19     93%     1026.1        
Feb 21 01:53 SSE 13 16.09 Partly Cloudy FEW015 SCT050 21 19     93%     1026.1 1025.2      
Feb 21 01:33 SSE 17 16.09 Mostly Cloudy SCT012 BKN055 21 19     93%     1026.1        
Feb 21 00:53 S 15 16.09 Cloudy OVC013 21 19     90%     1026.1 1025.5      
Feb 20 23:53 SSE 11 16.09 Cloudy BKN014 OVC075 21 19     93%     1025.7 1025.2      
Feb 20 22:53 SE 9 16.09 Clear CLR 20 19     93%     1025.7 1025      
Feb 20 21:53 SE 11 16.09 Mostly Cloudy SCT070 BKN100 21 19     87%     1025.4 1024.7      
Feb 20 20:53 ESE 8 16.09 Partly Cloudy SCT085 21 19     90%     1024.7 1024.3      
Feb 20 19:53 ESE 9 16.09 Clear CLR 22 18     81%   22 1024.4 1023.9      
Feb 20 18:53 SE 9 16.09 Partly Cloudy SCT047 23 18     76%   23 1024.1 1023.5      
Feb 20 17:53 SE 11 16.09 Mostly Clear FEW085 24 17     66%   24 1024.1 1023.4      
Feb 20 16:53 SSE 21 16.09 Mostly Cloudy FEW044 BKN090 26 17     60%   26 1023.4 1022.9      
Feb 20 15:53 SSE 17 16.09 Mostly Cloudy FEW049 BKN080 27 17     56%   27 1023 1022.4      
Feb 20 14:53 SSE 21 16.09 Cloudy FEW046 SCT055 OVC075 26 17     60%   26 1023 1022.4      
Feb 20 13:53 S 24 16.09 Mostly Cloudy FEW042 FEW055 BKN075 26 17     58%   26 1023.4 1022.8      
Feb 20 12:53 SSE 24 16.09 Mostly Cloudy SCT041 BKN065 26 17     58%   26 1024.4 1023.6      
Feb 20 11:53 SE 15 16.09 Mostly Cloudy FEW032 BKN065 25 18     64%   25 1025.1 1024.5      
Feb 20 10:53 S 22 16.09 Mostly Clear FEW060 25 18     64%   25 1025.7 1025.2      
Feb 20 09:53 SSE 13 16.09 Clear CLR 23 17     71%   23 1026.1 1025.5      
Feb 20 08:53 SE 15 16.09 Mostly Cloudy BKN055 20 17     81%     1026.1 1025.6      
Feb 20 07:53 SE 17 16.09 Mostly Clear FEW050 18 16     87%     1025.7 1025.2      
Feb 20 06:53 SE 9 12.87 Mostly Clear FEW050 16 14     93%     1025.1 1024.7      
Feb 20 05:53 SE 9 14.48 Clear CLR 16 15     93%     1025.4 1024.7      
Feb 20 04:53 Calm 14.48 Clear CLR 16 15     96%     1024.7 1024.4      
Feb 20 03:53 5 16.09 Clear CLR 16 15     96%     1024.7 1024      
Feb 20 02:53 Calm 16.09 Clear CLR 16 15     93%     1024.7 1024.1      
Feb 20 01:53 Calm 16.09 Clear CLR 15 14     93%     1024.7 1024.1      
Feb 20 00:53 Calm 16.09 Clear CLR 17 15     90%     1024.4 1023.8      
Feb 19 23:53 SSE 8 16.09 Mostly Clear FEW049 19 16     79%     1024.4 1023.8      
Feb 19 22:53 SE 8 16.09 Cloudy OVC070 20 16     76%     1024.4 1023.6      
Feb 19 21:53 SSE 5 16.09 Cloudy OVC070 20 15     73%     1023.7 1023.3      
Feb 19 20:53 SSE 8 16.09 Clear CLR 20 15     73%     1023.4 1023      
Feb 19 19:53 SSE 8 16.09 Mostly Cloudy BKN070 21 15     70%     1023 1022.7      
Feb 19 18:53 Calm 16.09 Mostly Cloudy BKN075 21 15     70%     1022.7 1022.4      
Feb 19 17:53 Calm 16.09 Mostly Cloudy BKN070 22 15     64%   22 1022.4 1022      
Feb 19 16:53 SSE 11 16.09 Cloudy OVC070 24 15     57%   24 1022.4 1021.8      
Feb 19 15:53 S 13 16.09 Cloudy OVC070 24 15     56%   24 1022 1021.5      
Feb 19 14:53 S 17 16.09 Partly Cloudy SCT070 25 14     52%   25 1022.4 1021.7      
Feb 19 13:53 S 15 16.09 Mostly Cloudy FEW049 BKN070 24 14     54%   24 1022.4 1021.8      
Feb 19 12:53 SSE 26 16.09 Partly Cloudy SCT045 26 15     52%   26 1022.7 1022.1      
Feb 19 11:53 SSE 17 16.09 Clear CLR 24 16     60%   24 1023.7 1023.2      
Feb 19 10:53 SSE 26 16.09 Partly Cloudy SCT027 SCT033 23 17     69%   23 1024.7 1024.4      
Feb 19 09:53 SSE 17 14.48 Partly Cloudy SCT009 20 18     87%     1025.4 1025.1      
Feb 19 09:49 SSE 9 12.87 Partly Cloudy SCT009 20 18     88%     1025.4        
Feb 19 09:01 S 18 11.27 Cloudy OVC007 18 17     96%     1025.7        
Feb 19 08:53 S 15 9.66 Fog/Mist OVC005 17 17     100%     1025.7 1025.4      
Jun 12 05:53 Calm 16.09 Mostly Clear FEW023 22 22     97%   23 1020.7 1020      
Jun 11 18:53 SSE 8 16.09 Clear CLR 30 21     57%   32 1018.6 1017.7      
Jun 11 11:53 SE 9 16.09 Clear CLR 29 19     53%   31 1021 1020.3      
Jun 11 10:53 ESE 11 16.09 Mostly Clear FEW031 28 22     67%   31 1021.3 1020.5      
Jun 11 01:53 Calm 16.09 Clear   22 18     81%   22 1018.6 1017.9      
Jun 10 03:53 Calm 16.09 Mostly Cloudy BKN060 BKN075 19 18     96%     1016.3 1015.4      
Jun 09 21:53 Calm 16.09 Clear CLR 21 19     87%     1015.2 1014.7      
Jun 08 19:53 Calm 16.09 Clear CLR 22 18     76%   22 1011.5 1010.9      
Jun 07 07:53 N 9 16.09 Clear CLR 21 16     71%     1009.8 1009.2      
Jun 06 08:20 NNW 8 4.83 Light Rain and Fog/Mist SCT006 OVC017 22 22     100%   23 1009.5   1    
Jun 06 07:28 Calm 8.05 Light Rain and Fog/Mist BKN013 BKN017 OVC043 22 22     100%   23 1009.5   0    
Jun 06 06:10 NW 9 2.82 Rain and Fog/Mist BKN013 BKN020 OVC024 21 21     100%     1009.5   1    
Jun 06 05:05 Calm 4.83 Rain and Fog/Mist FEW031 BKN042 OVC070 22 22     100%   23 1008.8   0    
Jun 05 21:53 Calm 16.09 Clear   22 22     100%   23 1010.2 1009.2   0